Time,TemperatureF,DewpointF,PressureIn,WindDirection,WindDirectionDegrees,WindSpeedMPH,WindSpeedGustMPH,Humidity,HourlyPrecipIn,Conditions,Clouds,dailyrainin,SoftwareType,DateUTC
2013-01-16 00:23:00,33.5,32.0,30.46,SSW,194,0.0,0.0,93,0.00,,,0.00,weatherlink.com 1.10,2013-01-16 08:23:00,
2013-01-16 00:38:00,33.1,31.0,30.47,SSW,194,0.0,0.0,93,0.00,,,0.00,weatherlink.com 1.10,2013-01-16 08:38:00,
2013-01-16 00:53:00,32.9,31.0,30.47,SSW,194,0.0,0.0,94,0.00,,,0.00,weatherlink.com 1.10,2013-01-16 08:53:00,
2013-01-16 01:08:00,32.9,31.0,30.47,SSW,194,0.0,0.0,94,0.00,,,0.00,weatherlink.com 1.10,2013-01-16 09:08:00,
2013-01-16 01:23:00,32.7,31.0,30.47,SSW,194,0.0,0.0,94,0.00,,,0.00,weatherlink.com 1.10,2013-01-16 09:23:00,
2013-01-16 01:38:00,32.6,31.0,30.47,SSW,194,0.0,0.0,94,0.00,,,0.00,weatherlink.com 1.10,2013-01-16 09:38:00,
2013-01-16 01:53:00,32.2,31.0,30.48,SSW,194,0.0,0.0,94,0.00,,,0.00,weatherlink.com 1.10,2013-01-16 09:53:00,
2013-01-16 02:08:00,32.5,31.0,30.48,SSW,194,0.0,0.0,94,0.00,,,0.00,weatherlink.com 1.10,2013-01-16 10:08:00,
2013-01-16 02:23:00,32.9,31.0,30.48,SSW,194,0.0,0.0,94,0.00,,,0.00,weatherlink.com 1.10,2013-01-16 10:23:00,
2013-01-16 02:38:00,32.6,31.0,30.48,SSW,194,0.0,0.0,94,0.00,,,0.00,weatherlink.com 1.10,2013-01-16 10:38:00,
2013-01-16 02:53:00,32.2,31.0,30.47,SSW,194,0.0,0.0,94,0.00,,,0.00,weatherlink.com 1.10,2013-01-16 10:53:00,
2013-01-16 03:08:00,31.9,30.0,30.47,SSW,194,0.0,0.0,94,0.00,,,0.00,weatherlink.com 1.10,2013-01-16 11:08:00,
2013-01-16 03:23:00,31.9,30.0,30.47,SSW,194,0.0,0.0,94,0.00,,,0.00,weatherlink.com 1.10,2013-01-16 11:23:00,
2013-01-16 03:38:00,32.1,31.0,30.46,SSW,194,0.0,0.0,95,0.00,,,0.00,weatherlink.com 1.10,2013-01-16 11:38:00,
2013-01-16 03:53:00,32.4,31.0,30.46,SSW,194,0.0,0.0,95,0.00,,,0.00,weatherlink.com 1.10,2013-01-16 11:53:00,
2013-01-16 04:08:00,33.2,32.0,30.46,SSW,194,0.0,0.0,95,0.00,,,0.00,weatherlink.com 1.10,2013-01-16 12:08:00,
2013-01-16 04:23:00,32.3,31.0,30.45,SSW,194,0.0,0.0,94,0.00,,,0.00,weatherlink.com 1.10,2013-01-16 12:23:00,
2013-01-16 04:38:00,31.6,30.0,30.45,SSW,194,0.0,0.0,94,0.00,,,0.00,weatherlink.com 1.10,2013-01-16 12:38:00,
2013-01-16 04:53:00,31.5,30.0,30.45,SSW,194,0.0,0.0,94,0.00,,,0.00,weatherlink.com 1.10,2013-01-16 12:53:00,
2013-01-16 05:08:00,31.6,30.0,30.44,SSW,194,0.0,0.0,95,0.00,,,0.00,weatherlink.com 1.10,2013-01-16 13:08:00,
2013-01-16 05:23:00,31.8,31.0,30.44,SSW,194,0.0,2.0,95,0.00,,,0.00,weatherlink.com 1.10,2013-01-16 13:23:00,
2013-01-16 05:38:00,31.7,31.0,30.43,SSW,194,0.0,0.0,95,0.00,,,0.00,weatherlink.com 1.10,2013-01-16 13:38:00,
2013-01-16 05:53:00,31.8,31.0,30.43,SSW,194,0.0,0.0,95,0.00,,,0.00,weatherlink.com 1.10,2013-01-16 13:53:00,
2013-01-16 06:08:00,31.5,30.0,30.43,SSW,194,0.0,0.0,95,0.00,,,0.00,weatherlink.com 1.10,2013-01-16 14:08:00,
2013-01-16 06:23:00,31.4,30.0,30.43,SSW,194,0.0,0.0,95,0.00,,,0.00,weatherlink.com 1.10,2013-01-16 14:23:00,
2013-01-16 06:38:00,31.8,31.0,30.43,SSW,194,0.0,0.0,95,0.00,,,0.00,weatherlink.com 1.10,2013-01-16 14:38:00,
2013-01-16 06:53:00,32.7,32.0,30.43,SSW,194,0.0,1.0,95,0.00,,,0.00,weatherlink.com 1.10,2013-01-16 14:53:00,
2013-01-16 07:08:00,32.4,31.0,30.44,SSW,194,0.0,0.0,95,0.00,,,0.00,weatherlink.com 1.10,2013-01-16 15:08:00,
2013-01-16 07:23:00,31.7,30.0,30.44,SSW,194,0.0,0.0,94,0.00,,,0.00,weatherlink.com 1.10,2013-01-16 15:23:00,
2013-01-16 07:38:00,31.2,30.0,30.44,SSW,194,0.0,1.0,94,0.00,,,0.00,weatherlink.com 1.10,2013-01-16 15:38:00,
2013-01-16 07:53:00,31.0,30.0,30.44,SSW,194,0.0,2.0,94,0.00,,,0.00,weatherlink.com 1.10,2013-01-16 15:53:00,
2013-01-16 08:08:00,31.4,30.0,30.44,SSW,199,0.0,4.0,95,0.00,,,0.00,weatherlink.com 1.10,2013-01-16 16:08:00,
2013-01-16 08:23:00,31.8,31.0,30.45,SSW,199,0.0,1.0,95,0.00,,,0.00,weatherlink.com 1.10,2013-01-16 16:23:00,
2013-01-16 08:38:00,31.9,31.0,30.45,SSW,199,0.0,1.0,95,0.00,,,0.00,weatherlink.com 1.10,2013-01-16 16:38:00,
2013-01-16 08:53:00,32.6,31.0,30.45,SSW,199,0.0,0.0,95,0.00,,,0.00,weatherlink.com 1.10,2013-01-16 16:53:00,
2013-01-16 09:08:00,34.0,33.0,30.46,SSW,199,0.0,1.0,95,0.00,,,0.00,weatherlink.com 1.10,2013-01-16 17:08:00,
2013-01-16 09:23:00,36.0,35.0,30.45,SSW,199,0.0,2.0,96,0.00,,,0.00,weatherlink.com 1.10,2013-01-16 17:23:00,
2013-01-16 09:39:00,40.0,37.0,30.46,SSW,199,0.0,1.0,89,0.00,,,0.00,weatherlink.com 1.10,2013-01-16 17:39:00,
2013-01-16 09:54:00,41.6,37.0,30.45,SSW,198,0.0,3.0,84,0.00,,,0.00,weatherlink.com 1.10,2013-01-16 17:54:00,
2013-01-16 10:09:00,42.7,37.0,30.45,SSW,198,0.0,1.0,81,0.00,,,0.00,weatherlink.com 1.10,2013-01-16 18:09:00,
2013-01-16 10:24:00,43.5,38.0,30.45,SSW,198,0.0,2.0,81,0.00,,,0.00,weatherlink.com 1.10,2013-01-16 18:24:00,
2013-01-16 10:39:00,43.8,38.0,30.44,SSW,199,0.0,2.0,81,0.00,,,0.00,weatherlink.com 1.10,2013-01-16 18:39:00,
2013-01-16 10:54:00,44.6,39.0,30.43,SSW,199,0.0,2.0,80,0.00,,,0.00,weatherlink.com 1.10,2013-01-16 18:54:00,
2013-01-16 11:09:00,45.9,40.0,30.43,SSW,199,0.0,1.0,79,0.00,,,0.00,weatherlink.com 1.10,2013-01-16 19:09:00,
2013-01-16 11:24:00,46.8,40.0,30.42,SSW,199,0.0,2.0,78,0.00,,,0.00,weatherlink.com 1.10,2013-01-16 19:24:00,
2013-01-16 11:39:00,47.7,41.0,30.41,SSW,198,0.0,2.0,77,0.00,,,0.00,weatherlink.com 1.10,2013-01-16 19:39:00,
2013-01-16 11:54:00,48.8,40.0,30.41,SE,141,2.0,5.0,72,0.00,,,0.00,weatherlink.com 1.10,2013-01-16 19:54:00,
2013-01-16 12:09:00,48.6,40.0,30.40,SSW,199,2.0,3.0,73,0.00,,,0.00,weatherlink.com 1.10,2013-01-16 20:09:00,
2013-01-16 12:24:00,49.8,41.0,30.39,SSW,202,0.0,2.0,71,0.00,,,0.00,weatherlink.com 1.10,2013-01-16 20:24:00,
2013-01-16 12:39:00,50.4,42.0,30.38,SSW,203,0.0,2.0,74,0.00,,,0.00,weatherlink.com 1.10,2013-01-16 20:39:00,
2013-01-16 12:54:00,50.7,42.0,30.37,SW,220,2.0,2.0,72,0.00,,,0.00,weatherlink.com 1.10,2013-01-16 20:54:00,
2013-01-16 13:09:00,50.9,42.0,30.36,SW,229,2.0,3.0,72,0.00,,,0.00,weatherlink.com 1.10,2013-01-16 21:09:00,
2013-01-16 13:24:00,50.8,42.0,30.36,SSW,196,2.0,3.0,73,0.00,,,0.00,weatherlink.com 1.10,2013-01-16 21:24:00,
2013-01-16 13:39:00,50.4,43.0,30.35,SSW,196,0.0,2.0,75,0.00,,,0.00,weatherlink.com 1.10,2013-01-16 21:39:00,
2013-01-16 13:54:00,50.8,43.0,30.35,SSW,210,0.0,3.0,74,0.00,,,0.00,weatherlink.com 1.10,2013-01-16 21:54:00,
2013-01-16 14:09:00,50.5,43.0,30.35,SSW,210,1.0,2.0,76,0.00,,,0.00,weatherlink.com 1.10,2013-01-16 22:09:00,
2013-01-16 14:24:00,50.7,43.0,30.34,SSW,210,1.0,2.0,76,0.00,,,0.00,weatherlink.com 1.10,2013-01-16 22:24:00,
2013-01-16 14:39:00,50.2,43.0,30.34,SSW,210,0.0,2.0,76,0.00,,,0.00,weatherlink.com 1.10,2013-01-16 22:39:00,
2013-01-16 14:54:00,50.5,43.0,30.34,SSW,210,0.0,2.0,76,0.00,,,0.00,weatherlink.com 1.10,2013-01-16 22:54:00,
2013-01-16 15:09:00,50.5,43.0,30.34,SSW,210,2.0,2.0,75,0.00,,,0.00,weatherlink.com 1.10,2013-01-16 23:09:00,
2013-01-16 15:24:00,50.4,42.0,30.34,SSW,210,2.0,2.0,74,0.00,,,0.00,weatherlink.com 1.10,2013-01-16 23:24:00,
2013-01-16 15:39:00,50.2,43.0,30.34,SSW,210,1.0,2.0,75,0.00,,,0.00,weatherlink.com 1.10,2013-01-16 23:39:00,
2013-01-16 15:54:00,50.2,43.0,30.34,SSW,210,0.0,2.0,75,0.00,,,0.00,weatherlink.com 1.10,2013-01-16 23:54:00,
2013-01-16 16:09:00,49.9,42.0,30.34,SSW,210,0.0,2.0,75,0.00,,,0.00,weatherlink.com 1.10,2013-01-17 00:09:00,
2013-01-16 16:24:00,49.4,41.0,30.34,SSW,210,0.0,1.0,74,0.00,,,0.00,weatherlink.com 1.10,2013-01-17 00:24:00,
2013-01-16 16:39:00,48.7,41.0,30.34,SSW,210,0.0,1.0,75,0.00,,,0.00,weatherlink.com 1.10,2013-01-17 00:39:00,
2013-01-16 16:54:00,47.8,41.0,30.34,SSW,210,0.0,1.0,77,0.00,,,0.00,weatherlink.com 1.10,2013-01-17 00:54:00,
2013-01-16 17:09:00,46.9,40.0,30.34,SSW,210,0.0,0.0,78,0.00,,,0.00,weatherlink.com 1.10,2013-01-17 01:09:00,
2013-01-16 17:24:00,45.9,40.0,30.34,SSW,210,0.0,0.0,79,0.00,,,0.00,weatherlink.com 1.10,2013-01-17 01:24:00,
2013-01-16 17:39:00,45.0,39.0,30.33,SSW,210,0.0,0.0,80,0.00,,,0.00,weatherlink.com 1.10,2013-01-17 01:39:00,
2013-01-16 17:54:00,44.1,39.0,30.34,SSW,210,0.0,0.0,81,0.00,,,0.00,weatherlink.com 1.10,2013-01-17 01:54:00,
2013-01-16 18:09:00,43.3,38.0,30.33,SSW,210,0.0,0.0,82,0.00,,,0.00,weatherlink.com 1.10,2013-01-17 02:09:00,
2013-01-16 18:24:00,42.5,38.0,30.34,SSW,210,0.0,0.0,83,0.00,,,0.00,weatherlink.com 1.10,2013-01-17 02:24:00,
2013-01-16 18:39:00,41.9,37.0,30.33,SSW,210,0.0,0.0,84,0.00,,,0.00,weatherlink.com 1.10,2013-01-17 02:39:00,
2013-01-16 18:55:00,41.6,37.0,30.34,SSW,210,0.0,0.0,85,0.00,,,0.00,weatherlink.com 1.10,2013-01-17 02:55:00,
2013-01-16 19:10:00,40.9,37.0,30.34,SSW,210,0.0,0.0,85,0.00,,,0.00,weatherlink.com 1.10,2013-01-17 03:10:00,
2013-01-16 19:25:00,40.3,37.0,30.33,SSW,210,0.0,0.0,87,0.00,,,0.00,weatherlink.com 1.10,2013-01-17 03:25:00,
2013-01-16 19:40:00,40.0,37.0,30.33,SSW,210,0.0,0.0,88,0.00,,,0.00,weatherlink.com 1.10,2013-01-17 03:40:00,
2013-01-16 19:55:00,39.7,37.0,30.33,SSW,210,0.0,0.0,89,0.00,,,0.00,weatherlink.com 1.10,2013-01-17 03:55:00,
2013-01-16 20:10:00,39.6,37.0,30.32,SSW,210,0.0,0.0,90,0.00,,,0.00,weatherlink.com 1.10,2013-01-17 04:10:00,
2013-01-16 20:25:00,39.3,36.0,30.33,SSW,210,0.0,0.0,89,0.00,,,0.00,weatherlink.com 1.10,2013-01-17 04:25:00,
2013-01-16 20:40:00,38.7,36.0,30.33,SSW,211,0.0,0.0,90,0.00,,,0.00,weatherlink.com 1.10,2013-01-17 04:40:00,
2013-01-16 20:55:00,38.3,36.0,30.32,SSW,210,0.0,1.0,91,0.00,,,0.00,weatherlink.com 1.10,2013-01-17 04:55:00,
2013-01-16 21:10:00,38.4,36.0,30.32,SSW,210,0.0,0.0,91,0.00,,,0.00,weatherlink.com 1.10,2013-01-17 05:10:00,
2013-01-16 21:25:00,38.3,36.0,30.32,SSW,210,0.0,0.0,92,0.00,,,0.00,weatherlink.com 1.10,2013-01-17 05:25:00,
2013-01-16 21:40:00,38.0,36.0,30.31,SSW,210,0.0,0.0,92,0.00,,,0.00,weatherlink.com 1.10,2013-01-17 05:40:00,
2013-01-16 21:55:00,38.0,36.0,30.31,SSW,210,0.0,0.0,93,0.00,,,0.00,weatherlink.com 1.10,2013-01-17 05:55:00,
2013-01-16 22:10:00,37.9,36.0,30.31,SSW,210,0.0,0.0,93,0.00,,,0.00,weatherlink.com 1.10,2013-01-17 06:10:00,
2013-01-16 22:25:00,37.9,36.0,30.31,SSW,210,0.0,0.0,93,0.00,,,0.00,weatherlink.com 1.10,2013-01-17 06:25:00,
2013-01-16 22:40:00,37.8,36.0,30.31,SSW,210,0.0,0.0,93,0.00,,,0.00,weatherlink.com 1.10,2013-01-17 06:40:00,
2013-01-16 22:55:00,37.9,36.0,30.31,SSW,210,0.0,0.0,94,0.00,,,0.00,weatherlink.com 1.10,2013-01-17 06:55:00,
2013-01-16 23:10:00,38.2,37.0,30.31,SSW,210,0.0,0.0,94,0.00,,,0.00,weatherlink.com 1.10,2013-01-17 07:10:00,
2013-01-16 23:25:00,37.9,36.0,30.31,SSW,210,0.0,0.0,93,0.00,,,0.00,weatherlink.com 1.10,2013-01-17 07:25:00,
2013-01-16 23:40:00,37.8,36.0,30.31,SSW,210,0.0,0.0,93,0.00,,,0.00,weatherlink.com 1.10,2013-01-17 07:40:00,
2013-01-16 23:55:00,37.7,36.0,30.31,SSW,210,0.0,0.0,93,0.00,,,0.00,weatherlink.com 1.10,2013-01-17 07:55:00,